Regional Weather Roundup
Issued by NWS Albany, NY

Current Version | Previous Version | Text Only | Print | Product List | Glossary On
Versions: 1 2 3 4 5 6 7 8 9 10 11 12 13 14 15 16 17 18 19 20 21 22 23 24 25 26 27 28 29 30 31 32 33 34 35 36 37 38 39 40 41 42 43 44 45 46 47 48 49 50
000 ASUS41 KALY 050210 RWRALY NEW YORK STATE HOURLY WEATHER ROUNDUP NATIONAL WEATHER SERVICE ALBANY NY 1000 PM EDT SAT JUL 04 2015 NOTE: "FAIR" INDICATES FEW OR NO CLOUDS BELOW 12,000 FEET WITH NO SIGNIFICANT WEATHER AND/OR NO OBSTRUCTIONS TO VISIBILITY. NYZ032-033-038>043-046>054-057>066-NYZ062>081-050300- EAST CITY SKY/WX TMP DP RH WIND PRES REMARKS ALBANY PTCLDY 63 60 90 CALM 30.00R GLENS FALLS PTCLDY 60 58 92 CALM 30.00R FOG POUGHKEEPSIE CLEAR 63 60 90 CALM 29.99R FOG NEWBURGH CLEAR 63 61 94 CALM 30.02R MONTGOMERY CLEAR 61 59 93 CALM 30.01R WHITE PLAINS CLEAR 65 60 84 CALM 30.00R ISLIP MOCLDY 69 52 54 SE6 29.98R NEW YORK CITY MOCLDY 73 55 53 E3 29.99R CENTRAL PARK MOCLDY 71 53 52 CALM 30.03R $$ NYZ005>009-017-018-044>046-055-056-050300- CENTRAL CITY SKY/WX TMP DP RH WIND PRES REMARKS FULTON CLEAR 61 53 75 CALM 29.99R SYRACUSE CLOUDY 68 57 68 NW7 29.99R ROME CLOUDY 69 60 73 SW5 30.00R ELMIRA PTCLDY 64 64 100 CALM 30.01R FOG BINGHAMTON CLEAR 60 58 92 S6 30.03R MONTICELLO CLOUDY 61 57 88 CALM 30.05R $$ NYZ026>034-041>043-050300- NORTH CITY SKY/WX TMP DP RH WIND PRES REMARKS WATERTOWN CLEAR 62 59 90 S3 29.97R FORT DRUM NOT AVBL MASSENA MOCLDY 65 60 84 CALM 29.95R SARANAC LAKE CLOUDY 61 60 97 CALM 29.99R FOG PLATTSBURGH CLOUDY 63 62 97 S5 29.95R $$ NYZ001>004-010>016-019>021-050300- WEST CITY SKY/WX TMP DP RH WIND PRES REMARKS NIAGARA FALLS CLEAR 66 56 70 SW8 29.99R BUFFALO PTCLDY 66 57 72 SW12 30.01R DUNKIRK CLEAR 61 55 81 S5 30.02R JAMESTOWN CLEAR 61 50 67 CALM 30.06R WELLSVILLE CLEAR 60 53 77 W7 30.07R ROCHESTER CLEAR 65 56 72 SW3 30.00R PENN YAN CLEAR 62 61 96 S3 30.01R $$ KEY WCI = WIND CHILL INDEX VSB = VISIBILITY HX = HEAT INDEX $$

USA.gov is the U.S. government's official web portal to all federal, state and local government web resources and services.